Location: Chicago
(41.7813°N, 87.6051°W)
Time: 13:45:24
(UTC-06:00)

ISS - Visible Passes

Search period start: 17 December 2017 00:00
Search period end: 27 December 2017 00:00
Orbit: 402 x 406 km, 51.6° (Epoch: 18 December)

Date Brightness Start Highest point End Pass type
(mag) Time Alt. Az. Time Alt. Az. Time Alt. Az.
17 Dec -2.7 16:58:23 10° WNW 17:01:35 47° SW 17:04:45 10° SE visible
18 Dec -0.2 17:44:36 10° WSW 17:45:21 11° SW 17:46:06 10° SW visible
19 Dec -0.7 16:50:49 10° W 16:53:19 20° SW 16:55:48 10° S visible
26 Dec -0.8 05:53:34 10° S 05:55:56 19° SE 05:58:18 10° E visible
